This demonstration page uses our WeatherBlox Daily Observations layout. Learn more.

Left ArrowRight Arrow

Hourly Observations for June 29, 2017

Temp ( °F °C ) Dew Point ( °F °C ) Humidity (%) Winds ( mph kmh ) Pressure ( in mb ) Visibility ( mi km ) Precip ( " mm )
12:15 am 00:15 Clear with Nearby Thunderstorms 72 22.3 60 15.3 65 65 SSE 7 11 29.68 1005 10 16.0934 0 0
12:35 am 00:35 Clear with Nearby Thunderstorms 72 22 60 15.4 66 66 S 8 13 29.68 1005 10 16.0934 0 0
12:55 am 00:55 Partly Cloudy 72 22.2 59 15 64 64 NW 6 9 29.68 1005 10 16.0934 0 0
1:15 am 01:15 Mostly Cloudy with Nearby Thunderstorms 72 22.2 59 15 64 64 Calm 29.68 1005 10 16.0934 0 0
1:35 am 01:35 Partly Cloudy with Nearby Thunderstorms 71 21.9 59 15.2 66 66 ESE 6 9 29.68 1005 10 16.0934 0 0
1:55 am 01:55 Clear 71 21.6 60 15.5 68 68 SE 12 19 29.68 1005 10 16.0934 0 0
2:15 am 02:15 Clear 69 20.6 60 15.5 73 73 SE 8 13 29.68 1005 10 16.0934 0 0
2:35 am 02:35 Clear 68 20 60 15.7 76 76 ESE 9 15 29.68 1005 10 16.0934 0 0
2:55 am 02:55 Clear 68 20.1 59 15.2 74 74 SE 5 7 29.71 1006 10 16.0934 0 0
3:15 am 03:15 Clear 68 20 60 15.6 76 76 SSE 9 15 29.71 1006 10 16.0934 0 0
3:35 am 03:35 Clear 68 20 61 16.2 79 79 SE 12 19 29.68 1005 10 16.0934 0 0
3:55 am 03:55 Clear 68 20.2 61 15.9 76 76 ESE 8 13 29.65 1004 10 16.0934 0 0
4:15 am 04:15 Clear 69 20.3 60 15.7 75 75 SSE 6 9 29.68 1005 10 16.0934 0 0
4:35 am 04:35 Clear 71 21.5 60 15.5 69 69 SE 6 9 29.68 1005 10 16.0934 0 0
4:55 am 04:55 Clear 72 22.1 60 15.8 68 68 NNW 13 20 29.74 1007 10 16.0934 0 0
5:15 am 05:15 Mostly Cloudy 70 21.3 59 15.1 68 68 N 6 9 29.77 1008 10 16.0934 0 0
5:35 am 05:35 Mostly Cloudy 69 20.5 60 15.5 73 73 NW 3 6 29.74 1007 10 16.0934 0 0
5:55 am 05:55 Cloudy 67 19.7 61 16.3 81 81 Calm 29.77 1008 10 16.0934 0 0
6:15 am 06:15 Cloudy 68 20.2 59 15.1 73 73 S 8 13 29.8 1009 10 16.0934 0.01 0.254
6:35 am 06:35 Cloudy 65 18.4 62 16.5 89 89 SSE 17 28 29.74 1007 10 16.0934 0.02 0.508
6:55 am 06:55 Partly Cloudy 64 17.6 60 15.5 88 88 SE 18 30 29.71 1006 10 16.0934 0.03 0.762
7:15 am 07:15 Sunny 64 17.9 62 16.5 92 92 E 20 31 29.65 1004 10 16.0934 0 0
7:35 am 07:35 Sunny 64 18 60 15.5 85 85 E 18 30 29.62 1003 10 16.0934 0 0
7:55 am 07:55 Sunny 66 19 60 15.8 82 82 SE 8 13 29.65 1004 10 16.0934 0 0
8:15 am 08:15 Sunny 67 19.6 61 16 80 80 S 12 19 29.68 1005 10 16.0934 0 0
8:35 am 08:35 Sunny 68 20.1 59 15.1 73 73 S 15 24 29.71 1006 10 16.0934 0 0
8:55 am 08:55 Sunny 67 19.5 60 15.5 78 78 S 17 28 29.71 1006 10 16.0934 0 0
9:15 am 09:15 Partly Cloudy 69 20.5 62 16.8 79 79 S 20 31 29.71 1006 10 16.0934 0 0
9:35 am 09:35 Partly Cloudy 69 20.8 62 16.7 77 77 S 15 24 29.71 1006 10 16.0934 0 0
9:55 am 09:55 Partly Cloudy 71 21.6 62 16.8 74 74 S 17 28 29.71 1006 10 16.0934 0 0
10:15 am 10:15 Sunny 72 22.2 62 16.7 71 71 S 14 22 29.71 1006 10 16.0934 0 0
10:35 am 10:35 Sunny 73 22.8 62 16.7 69 69 SSW 17 28 29.71 1006 10 16.0934 0 0
10:55 am 10:55 Sunny 74 23.5 62 16.6 65 65 SSW 16 26 29.71 1006 10 16.0934 0 0
11:15 am 11:15 Sunny 76 24.2 62 16.8 63 63 SSW 16 26 29.71 1006 10 16.0934 0 0
11:35 am 11:35 Sunny 76 24.5 62 16.4 61 61 SSW 15 24 29.71 1006 10 16.0934 0 0
11:55 am 11:55 Sunny 78 25.4 62 16.4 58 58 SW 16 26 29.71 1006 10 16.0934 0 0
12:15 pm 12:15 Sunny 79 25.9 62 16.5 56 56 SSW 13 20 29.71 1006 10 16.0934 0 0
12:35 pm 12:35 Sunny 80 26.5 61 16.1 53 53 SSW 13 20 29.71 1006 10 16.0934 0 0
12:55 pm 12:55 Sunny 80 26.9 60 15.5 50 50 SSW 12 19 29.71 1006 10 16.0934 0 0
1:15 pm 13:15 Sunny 82 27.6 59 15.2 47 47 SW 13 20 29.71 1006 10 16.0934 0 0
1:35 pm 13:35 Sunny 82 27.7 58 14.7 45 45 SSW 13 20 29.71 1006 10 16.0934 0 0
1:55 pm 13:55 Sunny 82 28 58 14.4 43 43 SSW 15 24 29.71 1006 10 16.0934 0 0
2:15 pm 14:15 Sunny 84 28.7 60 15.4 44 44 SW 10 17 29.71 1006 10 16.0934 0 0
2:35 pm 14:35 Partly Cloudy 84 28.8 61 16.1 46 46 WSW 10 17 29.71 1006 10 16.0934 0 0
2:55 pm 14:55 Partly Cloudy 83 28.3 60 15.3 45 45 SSW 6 9 29.71 1006 10 16.0934 0 0
3:15 pm 15:15 Mostly Cloudy 82 27.8 61 16.2 49 49 WSW 3 6 29.71 1006 10 16.0934 0 0
3:35 pm 15:35 Partly Cloudy 83 28.5 59 15 44 44 WNW 10 17 29.71 1006 10 16.0934 0 0
3:55 pm 15:55 Sunny 84 29 60 15.6 44 44 WNW 5 7 29.65 1004 10 16.0934 0 0
4:15 pm 16:15 Partly Cloudy 85 29.3 60 15.6 43 43 SW 5 7 29.65 1004 10 16.0934 0 0
4:35 pm 16:35 Sunny 84 28.8 59 14.8 42 42 W 7 11 29.65 1004 10 16.0934 0 0
4:55 pm 16:55 Partly Cloudy 84 29 58 14.7 42 42 NW 3 6 29.65 1004 10 16.0934 0 0
5:15 pm 17:15 Partly Cloudy 85 29.5 59 14.9 41 41 W 7 11 29.65 1004 10 16.0934 0 0
5:35 pm 17:35 Sunny 86 29.8 59 15 41 41 NNW 5 7 29.65 1004 10 16.0934 0 0
5:55 pm 17:55 Sunny 85 29.6 58 14.4 39 39 Calm 29.65 1004 10 16.0934 0 0
6:15 pm 18:15 Sunny 86 29.8 59 15.1 41 41 NW 5 7 29.65 1004 10 16.0934 0 0
6:35 pm 18:35 Sunny 86 30 57 13.8 37 37 W 7 11 29.65 1004 10 16.0934 0 0
6:55 pm 18:55 Sunny 85 29.6 59 15 41 41 N 5 7 29.65 1004 10 16.0934 0 0
7:15 pm 19:15 Sunny 84 29 60 15.5 44 44 NNW 6 9 29.65 1004 10 16.0934 0 0
7:35 pm 19:35 Sunny 82 28 62 16.5 50 50 Calm 29.68 1005 10 16.0934 0 0
7:55 pm 19:55 Sunny 82 28 61 16.3 49 49 Calm 29.68 1005 10 16.0934 0 0
8:15 pm 20:15 Sunny 82 27.8 61 16.1 49 49 Calm 29.68 1005 10 16.0934 0 0
8:35 pm 20:35 Sunny 82 27.6 62 16.5 51 51 WNW 3 6 29.71 1006 10 16.0934 0 0
8:55 pm 20:55 Partly Cloudy 80 26.7 60 15.6 51 51 N 7 11 29.74 1007 10 16.0934 0 0
9:15 pm 21:15 Mostly Cloudy 78 25.8 53 11.5 41 41 N 9 15 29.8 1009 10 16.0934 0 0
9:35 pm 21:35 Cloudy 77 24.9 54 12.1 45 45 N 7 11 29.8 1009 10 16.0934 0 0
9:55 pm 21:55 Mostly Cloudy 75 24 54 12.1 47 47 N 7 11 29.8 1009 10 16.0934 0 0
10:15 pm 22:15 Mostly Cloudy 75 23.8 53 11.6 46 46 N 7 11 29.83 1010 10 16.0934 0 0
10:35 pm 22:35 Partly Cloudy with Nearby Thunderstorms 73 22.9 53 11.4 48 48 N 3 6 29.83 1010 10 16.0934 0 0
10:55 pm 22:55 Clear 73 22.7 52 11.2 48 48 S 5 7 29.88 1012 10 16.0934 0 0
11:15 pm 23:15 Partly Cloudy 73 22.6 52 10.9 48 48 Calm 29.88 1012 10 16.0934 0 0
11:35 pm 23:35 Partly Cloudy 70 21 53 11.7 55 55 Calm 29.88 1012 10 16.0934 0 0
11:55 pm 23:55 Clear 71 21.7 49 9.4 46 46 N 6 9 29.88 1012 10 16.0934 0 0

Powered by AerisWeather